TGL971C LICC-LCLK

Flight info

Callsign TGL971C
Flight time 2h 5m
Altitude 36000
Route PIMOR DCT DODEL DCT BELIX DCT TITUS/N0428F370 DCT EPALO DCT KPC DCT TOSKA DCT BONEK
Aircraft A320/M-SDE3FGHIRWY/LB1

Departure

Time 2026-05-07 14:29
Airport Catania-Fontanarossa Airport (LICC)

Arrival

Time 2026-05-07 16:34
Airport Larnaca International Airport (LCLK)
Time Latitude Longitude Altitude Speed Heading
2026-05-07 13:56 37.46922 15.06624 27 ft 0 kts 19°
2026-05-07 14:21 37.46914 15.06620 27 ft 3 kts 19°
2026-05-07 14:21 37.46893 15.06612 27 ft 1 kts 19°
2026-05-07 14:21 37.46873 15.06606 27 ft 3 kts 351°
2026-05-07 14:21 37.46854 15.06617 28 ft 3 kts 303°
2026-05-07 14:22 37.46845 15.06644 28 ft 3 kts 271°
2026-05-07 14:22 37.46845 15.06655 28 ft 0 kts 264°
2026-05-07 14:24 37.46844 15.06641 28 ft 3 kts 264°
2026-05-07 14:24 37.46841 15.06598 28 ft 7 kts 264°
2026-05-07 14:24 37.46835 15.06524 27 ft 10 kts 263°
2026-05-07 14:25 37.46826 15.06423 27 ft 13 kts 264°
2026-05-07 14:25 37.46817 15.06310 30 ft 13 kts 264°
2026-05-07 14:25 37.46808 15.06201 32 ft 12 kts 264°
2026-05-07 14:25 37.46797 15.06091 34 ft 13 kts 262°
2026-05-07 14:26 37.46788 15.05967 35 ft 15 kts 264°
2026-05-07 14:26 37.46776 15.05836 36 ft 15 kts 264°
2026-05-07 14:26 37.46765 15.05704 38 ft 16 kts 264°
2026-05-07 14:26 37.46753 15.05564 39 ft 17 kts 264°
2026-05-07 14:27 37.46741 15.05420 40 ft 17 kts 264°
2026-05-07 14:27 37.46705 15.05294 39 ft 15 kts 227°
2026-05-07 14:27 37.46620 15.05203 39 ft 17 kts 211°
2026-05-07 14:27 37.46561 15.05248 39 ft 6 kts 81°
2026-05-07 14:28 37.46566 15.05285 38 ft 24 kts 83°
2026-05-07 14:28 37.46609 15.05782 33 ft 87 kts 84°
2026-05-07 14:28 37.46695 15.06748 35 ft 134 kts 81°
2026-05-07 14:28 37.46759 15.07902 585 ft 130 kts 81°
2026-05-07 14:29 37.46870 15.09055 1011 ft 136 kts 77°
2026-05-07 14:29 37.47034 15.10235 1467 ft 144 kts 81°
2026-05-07 14:29 37.47218 15.11583 1672 ft 169 kts 81°
2026-05-07 14:29 37.47428 15.13148 1893 ft 194 kts 81°
2026-05-07 14:30 37.47671 15.14924 2173 ft 221 kts 81°
2026-05-07 14:30 37.47955 15.16912 2762 ft 237 kts 81°
2026-05-07 14:30 37.48248 15.18929 3834 ft 233 kts 81°
2026-05-07 14:30 37.48526 15.20952 4714 ft 238 kts 81°
2026-05-07 14:31 37.48807 15.23042 5373 ft 249 kts 82°
2026-05-07 14:31 37.49111 15.25244 5997 ft 262 kts 84°
2026-05-07 14:31 37.49431 15.27566 6529 ft 276 kts 84°
2026-05-07 14:31 37.49768 15.29996 7160 ft 287 kts 84°
2026-05-07 14:32 37.50120 15.32511 7801 ft 296 kts 83°
2026-05-07 14:32 37.50482 15.35099 8433 ft 304 kts 83°
2026-05-07 14:32 37.50850 15.37743 9137 ft 309 kts 82°
2026-05-07 14:32 37.51222 15.40422 9836 ft 314 kts 82°
2026-05-07 14:33 37.51602 15.43175 10262 ft 328 kts 82°
2026-05-07 14:33 37.52002 15.46104 10409 ft 351 kts 82°
2026-05-07 14:33 37.52424 15.49184 10816 ft 361 kts 82°
2026-05-07 14:33 37.52855 15.52326 11398 ft 366 kts 82°
2026-05-07 14:34 37.53294 15.55508 11823 ft 369 kts 82°
2026-05-07 14:34 37.53736 15.58709 12356 ft 373 kts 82°
2026-05-07 14:34 37.54178 15.61940 12998 ft 376 kts 82°
2026-05-07 14:34 37.54618 15.65207 13615 ft 380 kts 82°
2026-05-07 14:35 37.55060 15.68500 14182 ft 383 kts 82°
2026-05-07 14:35 37.55508 15.71827 14732 ft 387 kts 82°
2026-05-07 14:35 37.55960 15.75191 15277 ft 391 kts 82°
2026-05-07 14:35 37.56416 15.78583 15820 ft 395 kts 82°
2026-05-07 14:36 37.56875 15.82006 16364 ft 398 kts 81°
2026-05-07 14:36 37.57338 15.85461 16903 ft 402 kts 82°
2026-05-07 14:36 37.57749 15.88961 17495 ft 405 kts 84°
2026-05-07 14:36 37.58076 15.92490 18078 ft 407 kts 85°
2026-05-07 14:37 37.58354 15.96057 18585 ft 411 kts 85°
2026-05-07 14:37 37.58881 16.03300 19505 ft 420 kts 85°
2026-05-07 14:37 37.59161 16.06981 19960 ft 424 kts 85°
2026-05-07 14:38 37.59459 16.10706 20428 ft 429 kts 85°
2026-05-07 14:38 37.59767 16.14464 20876 ft 433 kts 85°
2026-05-07 14:38 37.59899 16.18270 21316 ft 436 kts 94°
2026-05-07 14:38 37.59548 16.22077 21741 ft 438 kts 104°
2026-05-07 14:39 37.58780 16.25801 22169 ft 441 kts 109°
2026-05-07 14:39 37.57964 16.29544 22615 ft 445 kts 108°
2026-05-07 14:39 37.57145 16.33328 23048 ft 449 kts 108°
2026-05-07 14:39 37.56324 16.37146 23458 ft 454 kts 108°
2026-05-07 14:40 37.55499 16.41009 23794 ft 459 kts 108°
2026-05-07 14:40 37.54665 16.44909 24128 ft 463 kts 108°
2026-05-07 14:40 37.53822 16.48837 24479 ft 467 kts 108°
2026-05-07 14:40 37.52971 16.52798 24818 ft 470 kts 108°
2026-05-07 14:41 37.52112 16.56789 25150 ft 474 kts 108°
2026-05-07 14:41 37.51244 16.60811 25479 ft 478 kts 108°
2026-05-07 14:41 37.50368 16.64860 25799 ft 481 kts 108°
2026-05-07 14:41 37.49482 16.68942 26121 ft 485 kts 108°
2026-05-07 14:42 37.48586 16.73048 26432 ft 488 kts 108°
2026-05-07 14:42 37.47685 16.77182 26746 ft 491 kts 108°
2026-05-07 14:42 37.46779 16.81345 27062 ft 495 kts 108°
2026-05-07 14:42 37.45864 16.85537 27355 ft 498 kts 108°
2026-05-07 14:43 37.44939 16.89754 27656 ft 501 kts 108°
2026-05-07 14:43 37.44006 16.93994 27966 ft 504 kts 108°
2026-05-07 14:43 37.43384 16.96814 28168 ft 506 kts 108°
2026-05-07 14:43 37.42119 17.02550 28562 ft 511 kts 108°
2026-05-07 14:44 37.41490 17.05407 28758 ft 513 kts 108°
2026-05-07 14:44 37.40531 17.09747 29017 ft 517 kts 108°
2026-05-07 14:44 37.39561 17.14121 29289 ft 521 kts 108°
2026-05-07 14:44 37.38587 17.18512 29611 ft 523 kts 108°
2026-05-07 14:45 37.37595 17.22972 29977 ft 523 kts 108°
2026-05-07 14:45 37.36614 17.27382 30316 ft 523 kts 108°
2026-05-07 14:45 37.35637 17.31779 30740 ft 521 kts 108°
2026-05-07 14:45 37.34663 17.36161 31132 ft 520 kts 108°
2026-05-07 14:46 37.33687 17.40536 31504 ft 520 kts 108°
2026-05-07 14:46 37.32718 17.44850 31812 ft 521 kts 108°
2026-05-07 14:46 37.31728 17.49230 32148 ft 521 kts 108°
2026-05-07 14:46 37.30734 17.53612 32525 ft 521 kts 108°
2026-05-07 14:47 37.29730 17.58043 32910 ft 520 kts 108°
2026-05-07 14:47 37.28756 17.62351 33303 ft 520 kts 108°
2026-05-07 14:47 37.27770 17.66715 33695 ft 519 kts 108°
2026-05-07 14:47 37.26783 17.71071 34064 ft 518 kts 108°
2026-05-07 14:48 37.25796 17.75421 34379 ft 518 kts 108°
2026-05-07 14:48 37.24808 17.79767 34664 ft 518 kts 107°
2026-05-07 14:48 37.23818 17.84112 34953 ft 517 kts 108°
2026-05-07 14:48 37.22825 17.88448 35260 ft 517 kts 108°
2026-05-07 14:49 37.21832 17.92778 35548 ft 516 kts 107°
2026-05-07 14:49 37.20837 17.97103 35834 ft 516 kts 108°
2026-05-07 14:49 37.19840 18.01421 35959 ft 517 kts 108°
2026-05-07 14:49 37.18836 18.05755 35986 ft 518 kts 108°
2026-05-07 14:50 37.16826 18.14432 35981 ft 518 kts 107°
2026-05-07 14:50 37.14823 18.23108 35992 ft 518 kts 108°
2026-05-07 14:51 37.12806 18.31783 35992 ft 518 kts 108°
2026-05-07 14:51 37.10779 18.40445 35992 ft 518 kts 108°
2026-05-07 14:52 37.08752 18.49105 35997 ft 518 kts 107°
2026-05-07 14:52 37.06712 18.57763 36010 ft 518 kts 108°
2026-05-07 14:53 37.04664 18.66416 36009 ft 519 kts 107°
2026-05-07 14:53 37.02616 18.75072 36018 ft 519 kts 108°
2026-05-07 14:54 37.00562 18.83730 36018 ft 519 kts 107°
2026-05-07 14:54 36.98497 18.92386 36027 ft 520 kts 108°
2026-05-07 14:55 36.96417 19.01048 36039 ft 520 kts 108°
2026-05-07 14:55 36.94258 19.09671 36043 ft 520 kts 109°
2026-05-07 14:56 36.92028 19.18266 36046 ft 520 kts 109°
2026-05-07 14:56 36.89793 19.26856 36052 ft 520 kts 109°
2026-05-07 14:57 36.87583 19.35445 36049 ft 520 kts 108°
2026-05-07 14:57 36.85390 19.43976 36061 ft 519 kts 109°
2026-05-07 14:58 36.83172 19.52558 36050 ft 519 kts 109°
2026-05-07 14:58 36.80940 19.61126 36055 ft 519 kts 109°
2026-05-07 14:59 36.78700 19.69693 36059 ft 519 kts 109°
2026-05-07 14:59 36.76459 19.78262 36054 ft 520 kts 109°
2026-05-07 15:00 36.74211 19.86823 36058 ft 520 kts 109°
2026-05-07 15:00 36.71954 19.95382 36065 ft 520 kts 109°
2026-05-07 15:01 36.69698 20.03935 36069 ft 520 kts 109°
2026-05-07 15:01 36.67432 20.12485 36070 ft 520 kts 109°
2026-05-07 15:02 36.65153 20.21035 36076 ft 520 kts 109°
2026-05-07 15:02 36.62871 20.29590 36079 ft 521 kts 109°
2026-05-07 15:03 36.60576 20.38156 36078 ft 522 kts 109°
2026-05-07 15:03 36.58265 20.46711 36077 ft 522 kts 109°
2026-05-07 15:04 36.55945 20.55269 36071 ft 523 kts 108°
2026-05-07 15:04 36.53631 20.63848 36075 ft 524 kts 108°
2026-05-07 15:05 36.51313 20.72436 36078 ft 524 kts 108°
2026-05-07 15:05 36.48982 20.81027 36099 ft 525 kts 108°
2026-05-07 15:06 36.46632 20.89625 36086 ft 526 kts 108°
2026-05-07 15:06 36.44270 20.98229 36082 ft 527 kts 108°
2026-05-07 15:07 36.41896 21.06849 36091 ft 527 kts 108°
2026-05-07 15:07 36.39519 21.15464 36107 ft 528 kts 108°
2026-05-07 15:08 36.37136 21.24083 36101 ft 528 kts 107°
2026-05-07 15:08 36.34745 21.32709 36105 ft 529 kts 108°
2026-05-07 15:09 36.32679 21.41436 36114 ft 526 kts 97°
2026-05-07 15:09 36.31318 21.50338 36114 ft 526 kts 98°
2026-05-07 15:10 36.29937 21.59248 36123 ft 526 kts 98°
2026-05-07 15:10 36.28547 21.68152 36124 ft 526 kts 98°
2026-05-07 15:11 36.27150 21.77055 36118 ft 526 kts 98°
2026-05-07 15:11 36.25748 21.85960 36132 ft 527 kts 97°
2026-05-07 15:12 36.24334 21.94860 36134 ft 527 kts 97°
2026-05-07 15:12 36.22921 22.03765 36133 ft 527 kts 97°
2026-05-07 15:13 36.21512 22.12609 36138 ft 527 kts 98°
2026-05-07 15:13 36.20075 22.21564 36142 ft 527 kts 97°
2026-05-07 15:14 36.18649 22.30402 36141 ft 527 kts 97°
2026-05-07 15:14 36.17207 22.39284 36146 ft 527 kts 97°
2026-05-07 15:15 36.15759 22.48172 36153 ft 527 kts 97°
2026-05-07 15:15 36.14307 22.57050 36152 ft 526 kts 97°
2026-05-07 15:16 36.12844 22.65919 36151 ft 526 kts 97°
2026-05-07 15:16 36.11375 22.74783 36150 ft 526 kts 97°
2026-05-07 15:17 36.09907 22.83641 36159 ft 526 kts 97°
2026-05-07 15:17 36.08434 22.92495 36155 ft 526 kts 97°
2026-05-07 15:18 36.06940 23.01345 36148 ft 526 kts 97°
2026-05-07 15:18 36.05445 23.10188 36148 ft 526 kts 97°
2026-05-07 15:19 36.03957 23.19030 36156 ft 525 kts 97°
2026-05-07 15:19 36.02455 23.27861 36155 ft 525 kts 97°
2026-05-07 15:20 36.00944 23.36680 36153 ft 525 kts 97°
2026-05-07 15:20 35.99427 23.45492 36161 ft 524 kts 97°
2026-05-07 15:21 35.97908 23.54292 36157 ft 524 kts 97°
2026-05-07 15:21 35.96382 23.63090 36157 ft 523 kts 97°
2026-05-07 15:22 35.94854 23.71870 36155 ft 523 kts 97°
2026-05-07 15:22 35.93321 23.80645 36161 ft 523 kts 97°
2026-05-07 15:23 35.91784 23.89409 36157 ft 522 kts 97°
2026-05-07 15:23 35.90236 23.98166 36155 ft 522 kts 97°
2026-05-07 15:24 35.88677 24.06911 36164 ft 522 kts 97°
2026-05-07 15:24 35.87126 24.15651 36157 ft 522 kts 96°
2026-05-07 15:25 35.85569 24.24398 36151 ft 522 kts 97°
2026-05-07 15:25 35.84007 24.33141 36152 ft 522 kts 97°
2026-05-07 15:26 35.82435 24.41877 36165 ft 523 kts 97°
2026-05-07 15:26 35.80845 24.50617 36153 ft 523 kts 97°
2026-05-07 15:27 35.79246 24.59355 36148 ft 523 kts 97°
2026-05-07 15:27 35.77910 24.66619 36147 ft 523 kts 97°
2026-05-07 15:28 35.76303 24.75357 36148 ft 523 kts 97°
2026-05-07 15:28 35.74703 24.84093 36149 ft 523 kts 97°
2026-05-07 15:29 35.73089 24.92834 36149 ft 524 kts 97°
2026-05-07 15:29 35.71461 25.01570 36161 ft 523 kts 96°
2026-05-07 15:30 35.70145 25.10343 36154 ft 520 kts 92°
2026-05-07 15:30 35.69133 25.19132 36150 ft 519 kts 91°
2026-05-07 15:31 35.68116 25.27916 36144 ft 519 kts 92°
2026-05-07 15:31 35.66978 25.36694 36151 ft 520 kts 92°
2026-05-07 15:32 35.65784 25.45466 36149 ft 520 kts 92°
2026-05-07 15:32 35.64604 25.54236 36146 ft 520 kts 92°
2026-05-07 15:33 35.63443 25.63005 36143 ft 519 kts 92°
2026-05-07 15:33 35.62281 25.71759 36153 ft 519 kts 92°
2026-05-07 15:34 35.61095 25.80511 36149 ft 519 kts 92°
2026-05-07 15:34 35.59900 25.89263 36147 ft 519 kts 92°
2026-05-07 15:35 35.58712 25.98010 36161 ft 519 kts 92°
2026-05-07 15:35 35.57520 26.06754 36160 ft 519 kts 92°
2026-05-07 15:36 35.56319 26.15481 36163 ft 518 kts 92°
2026-05-07 15:36 35.55109 26.24201 36160 ft 517 kts 92°
2026-05-07 15:37 35.53897 26.32899 36168 ft 517 kts 93°
2026-05-07 15:37 35.52681 26.41584 36169 ft 515 kts 93°
2026-05-07 15:38 35.51462 26.50247 36163 ft 515 kts 93°
2026-05-07 15:38 35.50235 26.58897 36180 ft 514 kts 93°
2026-05-07 15:39 35.49005 26.67528 36177 ft 513 kts 94°
2026-05-07 15:39 35.47772 26.76136 36178 ft 512 kts 94°
2026-05-07 15:40 35.46540 26.84727 36179 ft 511 kts 94°
2026-05-07 15:40 35.45304 26.93295 36197 ft 509 kts 94°
2026-05-07 15:41 35.44061 27.01830 36195 ft 508 kts 94°
2026-05-07 15:41 35.42815 27.10340 36195 ft 506 kts 94°
2026-05-07 15:42 35.41565 27.18830 36184 ft 505 kts 95°
2026-05-07 15:42 35.40318 27.27290 36181 ft 504 kts 95°
2026-05-07 15:43 35.39065 27.35730 36189 ft 503 kts 95°
2026-05-07 15:43 35.37814 27.44146 36185 ft 501 kts 95°
2026-05-07 15:44 35.36557 27.52535 36187 ft 500 kts 96°
2026-05-07 15:44 35.35297 27.60901 36181 ft 499 kts 96°
2026-05-07 15:45 35.34035 27.69240 36173 ft 497 kts 96°
2026-05-07 15:45 35.32772 27.77564 36173 ft 497 kts 96°
2026-05-07 15:46 35.30862 27.90026 36164 ft 496 kts 96°
2026-05-07 15:47 35.29587 27.98326 36163 ft 496 kts 96°
2026-05-07 15:47 35.28303 28.06629 36167 ft 496 kts 96°
2026-05-07 15:48 35.27013 28.14922 36169 ft 496 kts 96°
2026-05-07 15:48 35.25714 28.23218 36168 ft 496 kts 96°
2026-05-07 15:49 35.24413 28.31502 36163 ft 496 kts 96°
2026-05-07 15:49 35.23113 28.39785 36186 ft 496 kts 96°
2026-05-07 15:50 35.21808 28.48065 36168 ft 495 kts 96°
2026-05-07 15:50 35.20500 28.56263 36169 ft 495 kts 96°
2026-05-07 15:51 35.19179 28.64517 36164 ft 494 kts 96°
2026-05-07 15:51 35.17860 28.72756 36172 ft 494 kts 97°
2026-05-07 15:52 35.16529 28.80982 36175 ft 493 kts 97°
2026-05-07 15:52 35.15199 28.89192 36175 ft 492 kts 97°
2026-05-07 15:53 35.13869 28.97389 36192 ft 492 kts 97°
2026-05-07 15:53 35.12543 29.05568 36184 ft 490 kts 97°
2026-05-07 15:54 35.11209 29.13707 36171 ft 488 kts 97°
2026-05-07 15:54 35.09870 29.21819 36166 ft 487 kts 97°
2026-05-07 15:55 35.08525 29.29915 36177 ft 486 kts 97°
2026-05-07 15:55 35.07181 29.37986 36170 ft 484 kts 98°
2026-05-07 15:56 35.05830 29.46032 36164 ft 483 kts 98°
2026-05-07 15:56 35.04479 29.54061 36165 ft 483 kts 98°
2026-05-07 15:57 35.03135 29.62078 36162 ft 482 kts 98°
2026-05-07 15:57 35.01782 29.70088 36159 ft 482 kts 98°
2026-05-07 15:58 35.00423 29.78084 36166 ft 481 kts 98°
2026-05-07 15:58 34.99065 29.86073 36167 ft 481 kts 98°
2026-05-07 15:59 34.97704 29.94046 36163 ft 480 kts 98°
2026-05-07 15:59 34.96817 30.02048 36159 ft 472 kts 85°
2026-05-07 16:00 34.97150 30.10007 36156 ft 470 kts 82°
2026-05-07 16:00 34.97535 30.17958 36163 ft 470 kts 82°
2026-05-07 16:01 34.97906 30.25902 36165 ft 469 kts 82°
2026-05-07 16:01 34.98267 30.33835 36159 ft 468 kts 82°
2026-05-07 16:02 34.98623 30.41758 36164 ft 467 kts 82°
2026-05-07 16:02 34.98976 30.49663 36164 ft 466 kts 82°
2026-05-07 16:03 34.99321 30.57545 36164 ft 465 kts 82°
2026-05-07 16:03 34.99656 30.65418 36168 ft 465 kts 82°
2026-05-07 16:04 34.99989 30.73279 36158 ft 464 kts 82°
2026-05-07 16:04 35.00325 30.81139 36153 ft 464 kts 82°
2026-05-07 16:05 35.00654 30.88994 36148 ft 464 kts 82°
2026-05-07 16:05 35.00973 30.96851 36143 ft 464 kts 82°
2026-05-07 16:06 35.01276 31.04701 36147 ft 463 kts 82°
2026-05-07 16:06 35.01583 31.12539 36147 ft 462 kts 82°
2026-05-07 16:07 35.01886 31.20373 36092 ft 463 kts 82°
2026-05-07 16:07 35.02036 31.24290 35831 ft 461 kts 82°
2026-05-07 16:07 35.02183 31.28184 35589 ft 459 kts 82°
2026-05-07 16:07 35.02328 31.32064 35350 ft 457 kts 82°
2026-05-07 16:08 35.02472 31.35933 35102 ft 456 kts 82°
2026-05-07 16:08 35.02615 31.39787 34858 ft 454 kts 82°
2026-05-07 16:08 35.02758 31.43630 34616 ft 453 kts 82°
2026-05-07 16:08 35.02899 31.47458 34377 ft 451 kts 82°
2026-05-07 16:09 35.03039 31.51275 34143 ft 450 kts 82°
2026-05-07 16:09 35.03177 31.55074 33800 ft 446 kts 82°
2026-05-07 16:09 35.03309 31.58846 33292 ft 444 kts 82°
2026-05-07 16:09 35.03437 31.62594 32805 ft 441 kts 82°
2026-05-07 16:10 35.03563 31.66321 32315 ft 439 kts 82°
2026-05-07 16:10 35.03645 31.68777 31999 ft 437 kts 82°
2026-05-07 16:10 35.03768 31.72477 31524 ft 435 kts 82°
2026-05-07 16:10 35.03892 31.76156 31054 ft 433 kts 82°
2026-05-07 16:11 35.04014 31.79818 30597 ft 431 kts 82°
2026-05-07 16:11 35.04136 31.83464 30135 ft 429 kts 83°
2026-05-07 16:11 35.04262 31.87097 29646 ft 427 kts 83°
2026-05-07 16:11 35.04385 31.90694 29227 ft 423 kts 83°
2026-05-07 16:12 35.04503 31.94269 28789 ft 420 kts 83°
2026-05-07 16:12 35.04616 31.97813 28372 ft 417 kts 83°
2026-05-07 16:12 35.04728 32.01345 27949 ft 415 kts 83°
2026-05-07 16:12 35.04838 32.04855 27527 ft 413 kts 83°
2026-05-07 16:13 35.04947 32.08352 27106 ft 412 kts 83°
2026-05-07 16:13 35.05057 32.11838 26676 ft 411 kts 83°
2026-05-07 16:13 35.05163 32.15320 26238 ft 410 kts 84°
2026-05-07 16:13 35.05268 32.18800 25798 ft 410 kts 84°
2026-05-07 16:14 35.05374 32.22276 25345 ft 410 kts 84°
2026-05-07 16:14 35.05481 32.25753 24896 ft 410 kts 84°
2026-05-07 16:14 35.05587 32.29231 24424 ft 410 kts 84°
2026-05-07 16:14 35.05690 32.32702 24077 ft 407 kts 84°
2026-05-07 16:15 35.05789 32.36143 23690 ft 405 kts 84°
2026-05-07 16:15 35.05885 32.39574 23235 ft 403 kts 84°
2026-05-07 16:15 35.05978 32.42974 22756 ft 398 kts 84°
2026-05-07 16:15 35.06069 32.46328 21929 ft 393 kts 84°
2026-05-07 16:16 35.06161 32.49652 21121 ft 389 kts 84°
2026-05-07 16:16 35.06252 32.52928 20430 ft 382 kts 84°
2026-05-07 16:16 35.06339 32.56108 19988 ft 368 kts 84°
2026-05-07 16:16 35.06422 32.59181 19558 ft 356 kts 84°
2026-05-07 16:17 35.06499 32.62157 19149 ft 346 kts 84°
2026-05-07 16:17 35.06577 32.65085 18729 ft 345 kts 84°
2026-05-07 16:17 35.06656 32.68017 18302 ft 346 kts 84°
2026-05-07 16:17 35.06736 32.70952 17858 ft 346 kts 84°
2026-05-07 16:18 35.06815 32.73881 17441 ft 345 kts 85°
2026-05-07 16:18 35.06893 32.76805 17032 ft 344 kts 85°
2026-05-07 16:18 35.06970 32.79715 16624 ft 343 kts 85°
2026-05-07 16:18 35.07042 32.82623 16213 ft 342 kts 85°
2026-05-07 16:19 35.07111 32.85521 15809 ft 341 kts 86°
2026-05-07 16:19 35.07181 32.88408 15404 ft 340 kts 86°
2026-05-07 16:19 35.07251 32.91289 15001 ft 339 kts 86°
2026-05-07 16:19 35.07037 32.94154 14598 ft 340 kts 101°
2026-05-07 16:20 35.06323 32.96906 14198 ft 340 kts 108°
2026-05-07 16:20 35.05536 32.99620 13772 ft 339 kts 108°
2026-05-07 16:20 35.04755 33.02329 13345 ft 337 kts 107°
2026-05-07 16:20 35.03988 33.05009 12938 ft 333 kts 107°
2026-05-07 16:21 35.03227 33.07671 12537 ft 331 kts 108°
2026-05-07 16:21 35.02467 33.10307 12135 ft 328 kts 107°
2026-05-07 16:21 35.01713 33.12925 11740 ft 326 kts 107°
2026-05-07 16:21 35.00960 33.15530 11345 ft 325 kts 107°
2026-05-07 16:22 35.00213 33.18114 11021 ft 321 kts 108°
2026-05-07 16:22 34.99476 33.20672 10628 ft 319 kts 108°
2026-05-07 16:22 34.98760 33.23154 10478 ft 309 kts 107°
2026-05-07 16:22 34.98056 33.25585 10359 ft 299 kts 107°
2026-05-07 16:23 34.97370 33.27945 10179 ft 292 kts 107°
2026-05-07 16:23 34.96697 33.30266 9900 ft 289 kts 107°
2026-05-07 16:23 34.96031 33.32564 9557 ft 287 kts 107°
2026-05-07 16:23 34.95367 33.34854 9222 ft 286 kts 107°
2026-05-07 16:24 34.94705 33.37129 8887 ft 284 kts 107°
2026-05-07 16:24 34.94045 33.39397 8554 ft 283 kts 107°
2026-05-07 16:24 34.93388 33.41652 8229 ft 282 kts 107°
2026-05-07 16:24 34.92735 33.43898 7896 ft 280 kts 107°
2026-05-07 16:25 34.92084 33.46129 7567 ft 279 kts 107°
2026-05-07 16:25 34.91434 33.48352 7213 ft 278 kts 106°
2026-05-07 16:25 34.90787 33.50567 6916 ft 277 kts 106°
2026-05-07 16:25 34.90144 33.52764 6627 ft 275 kts 105°
2026-05-07 16:26 34.89503 33.54952 6320 ft 273 kts 106°
2026-05-07 16:26 34.88864 33.57130 5984 ft 273 kts 106°
2026-05-07 16:26 34.88230 33.59305 5633 ft 273 kts 106°
2026-05-07 16:26 34.87800 33.61531 5300 ft 269 kts 92°
2026-05-07 16:27 34.87873 33.63783 4954 ft 265 kts 77°
2026-05-07 16:27 34.88419 33.65914 4602 ft 263 kts 65°
2026-05-07 16:27 34.89119 33.67963 4363 ft 259 kts 65°
2026-05-07 16:27 34.89795 33.69965 4077 ft 256 kts 65°
2026-05-07 16:28 34.90479 33.71987 3787 ft 255 kts 65°
2026-05-07 16:28 34.91139 33.73948 3660 ft 246 kts 65°
2026-05-07 16:28 34.91774 33.75839 3529 ft 236 kts 65°
2026-05-07 16:28 34.92389 33.77645 3392 ft 224 kts 61°
2026-05-07 16:29 34.93327 33.79060 3019 ft 213 kts 32°
2026-05-07 16:29 34.94696 33.79654 2558 ft 211 kts
2026-05-07 16:29 34.96119 33.79309 2233 ft 210 kts 332°
2026-05-07 16:29 34.97198 33.78138 1933 ft 210 kts 302°
2026-05-07 16:30 34.97624 33.76487 1791 ft 202 kts 272°
2026-05-07 16:30 34.97346 33.74851 1631 ft 198 kts 243°
2026-05-07 16:30 34.96486 33.73552 1562 ft 198 kts 226°
2026-05-07 16:30 34.95565 33.72427 1487 ft 176 kts 227°
2026-05-07 16:31 34.94753 33.71431 1477 ft 159 kts 227°
2026-05-07 16:31 34.93991 33.70495 1433 ft 153 kts 227°
2026-05-07 16:31 34.93246 33.69582 1296 ft 151 kts 226°
2026-05-07 16:31 34.92512 33.68683 1144 ft 148 kts 227°
2026-05-07 16:32 34.91788 33.67794 997 ft 147 kts 225°
2026-05-07 16:32 34.91073 33.66910 841 ft 146 kts 224°
2026-05-07 16:32 34.90365 33.66037 627 ft 144 kts 225°
2026-05-07 16:32 34.89669 33.65177 378 ft 141 kts 225°
2026-05-07 16:33 34.88987 33.64345 215 ft 136 kts 224°
2026-05-07 16:33 34.88310 33.63538 100 ft 137 kts 223°
2026-05-07 16:33 34.87645 33.62740 14 ft 123 kts 227°
2026-05-07 16:33 34.87164 33.62139 16 ft 74 kts 225°
2026-05-07 16:34 34.86904 33.61822 16 ft 41 kts 225°
2026-05-07 16:34 34.86706 33.61578 15 ft 41 kts 225°
2026-05-07 16:34 34.86573 33.61402 16 ft 24 kts 234°
2026-05-07 16:34 34.86509 33.61248 17 ft 13 kts 252°
2026-05-07 16:35 34.86496 33.61196 17 ft 1 kts 255°
2026-05-07 16:35 34.86492 33.61177 17 ft 0 kts 255°
2026-05-07 16:35 34.86492 33.61175 17 ft 0 kts 255°
2026-05-07 16:36 34.86491 33.61172 17 ft 2 kts 255°
2026-05-07 16:36 34.86486 33.61148 19 ft 4 kts 255°
2026-05-07 16:36 34.86478 33.61100 17 ft 7 kts 267°
2026-05-07 16:36 34.86508 33.61041 16 ft 10 kts 330°
2026-05-07 16:37 34.86573 33.61058 16 ft 11 kts 33°
2026-05-07 16:37 34.86633 33.61125 16 ft 13 kts 45°
2026-05-07 16:37 34.86702 33.61209 16 ft 15 kts 45°
2026-05-07 16:37 34.86783 33.61309 16 ft 18 kts 44°
2026-05-07 16:38 34.86865 33.61378 15 ft 14 kts
2026-05-07 16:38 34.86945 33.61305 15 ft 16 kts 315°
2026-05-07 16:38 34.87021 33.61214 15 ft 14 kts 315°
2026-05-07 16:38 34.87081 33.61140 15 ft 12 kts 315°
2026-05-07 16:39 34.87116 33.61081 15 ft 8 kts 272°
2026-05-07 16:39 34.87086 33.61024 15 ft 9 kts 225°
2026-05-07 16:39 34.87066 33.61000 15 ft 0 kts 226°